Погода в Эльбасане

Албания     41°06′37″N   20°04′58″E
темп.,
°C
ветер,
м/с
пор.,
м/с
влажн.,
%
обл.,
%
осадки,
мм/ч
давл.,
гПа
погр.,
м
8 марта, пн
пн801:00+6в11828 0.0 102022
04:00+6в12800 0.0 101922
07:00+7всв117323 0.0 101825
10:00+12с115781 0.1 1018581
13:00+13ссз225382 0.1 10161067
16:00+12сз236595 0.1 1015391
19:00+9всв117681 0.1 101522
22:00+8в11790 0.0 101622
9 марта, вт
вт901:00+8в117730 0.0 101622
04:00+8всв117487 0.0 101522
07:00+9в117393 0.0 101630
10:00+13сз0156100 0.0 1015676
13:00+15з225698 0.0 10151148
16:00+14з3265100 0.0 1013852
19:00+11сз1177100 0.1 101422
22:00+11всв1176100 0.1 101422
10 марта, ср
ср1001:00+9вюв1280100 0.1 101323
04:00+10юв0173100 0.0 101123
07:00+9в3386100 3.1 1012160
10:00+8вюв3593100 10.3 1012262
13:00+8юв2392100 19.4 1013255
16:00+9вюв2284100 4.6 1013181
19:00+9зюз0087100 4.6 101522
22:00+9вюв118997 0.1 101722
11 марта, чт
чт1101:00+8с128998 0.2 101849
04:00+7св348198 0.1 1019195
07:00+6всв347696 0.1 1020271
10:00+10всв345656 0.0 1022637
13:00+13св334628 0.0 10211150
16:00+13ссв23480 0.0 10211005
19:00+8св11670 0.0 102324
22:00+7в11700 0.0 102423
12 марта, пт
пт1201:00+6в11690 0.0 102423
04:00+6в126867 0.0 102422
07:00+7в117040 0.0 102323
10:00+12з115813 0.0 1023629
13:00+14з226241 0.0 10221104
16:00+13з227192 0.1 1020726
19:00+9зсз018486 0.1 102122
22:00+8в11878 0.0 102122